Regional Weather Roundup
Issued by NWS

Home | Current Version | Previous Version | Text Only | Print | Product List | Glossary On
Versions: 1 2 3 4 5 6 7 8 9 10 11 12 13 14 15 16 17 18 19 20 21 22 23 24 25 26 27 28 29 30 31 32 33 34 35 36 37 38 39 40 41 42 43 44 45 46 47 48 49 50
000
ASUS45 KABQ 200810
RWRNM
NEW MEXICO REGIONAL WEATHER ROUNDUP
NATIONAL WEATHER SERVICE ALBUQUERQUE NM
200 AM MDT SUN AUG 20 2017

NOTE: "FAIR" MEANS FEW OR NO CLOUDS BELOW 12,000 FEET AGL WITH NO
       SIGNIFICANT WEATHER OR OBSTRUCTIONS TO VISION.

      THIS PRODUCT IS RELEASED AS TWO VERSIONS.  ONE VERSION NEAR
      THE TOP OF THE HOUR CONTAINING PRELIMINARY DATA FROM ALBUQUERQUE
      AND OTHER STATIONS.  A FINAL VERSION WITH ADDITIONAL DATA IS
      ISSUED ABOUT 10 MINUTES AFTER THE HOUR.

NMZ501-503-504-510>518-200900-
NORTHWEST PLATEAU/NORTHCENTRAL MOUNTAINS

CITY           SKY/WX    TMP DP  RH WIND       PRES   REMARKS
FARMINGTON     FAIR      70  38  31 NE5       30.10R
LOS ALAMOS     FAIR      64  44  49 S8        30.29F
SANTA FE       FAIR      66  48  52 SE8       30.24S
TAOS           FAIR      57  44  62 N7        30.31F
ANGEL FIRE     FAIR      48  43  83 CALM      30.38S

$$
NMZ402-403-502-505>509-200900-
WESTCENTRAL MOUNTAINS/SOUTHWEST MOUNTAINS

CITY           SKY/WX    TMP DP  RH WIND       PRES   REMARKS
GALLUP         FAIR      71  41  33 SW14      30.20F
GRANTS         FAIR      68  45  44 S6        30.24S
SILVER CITY    CLOUDY    64  58  80 CALM      30.24F

$$
NMZ407-409-411-412-200900-
SOUTHERN DESERTS

CITY           SKY/WX    TMP DP  RH WIND       PRES   REMARKS
DEMING         CLOUDY    63  59  87 N7        30.16F
LAS CRUCES     LGT RAIN  65  59  81 W10       30.12F
HOLLOMAN AFB   MOCLDY    71  58  61 N9        30.10F
ALAMOGORDO     FAIR      68  59  73 CALM      30.10F
T OR C         MOCLDY    71  55  56 W14       30.16F

$$
NMZ519>523-200900-
CENTRAL VALLEYS/CENTRAL HIGHLANDS

CITY           SKY/WX    TMP DP  RH WIND       PRES   REMARKS
ALBUQUERQUE    CLOUDY    72  46  39 SE5       30.17F
MORIARTY ARPT  FAIR      59  55  86 CALM      30.24F
CLINES CORNERS FAIR      61  47  59 W10       30.27F
BELEN          FAIR      72  46  38 S9        30.15F
SOCORRO        FAIR      72  51  46 S8        30.13F

$$
NMZ524>526-539-540-200900-
SOUTHCENTRAL MOUNTAINS

CITY           SKY/WX    TMP DP  RH WIND       PRES   REMARKS
RUIDOSO        CLOUDY    61  54  77 SW3       30.28S

$$
NMZ527>531-200900-
NORTHEAST HIGHLANDS/NORTHEAST PLAINS

CITY           SKY/WX    TMP DP  RH WIND       PRES   REMARKS
LAS VEGAS      FAIR      60  48  64 SW10      30.25F
RATON          FAIR      59  49  69 N8        30.18F
CLAYTON        FAIR      60  54  80 S8        30.11R

$$
NMZ532>537-200900-
EASTCENTRAL PLAINS

CITY           SKY/WX    TMP DP  RH WIND       PRES   REMARKS
SANTA ROSA     FAIR      66  52  61 W5        30.11S
TUCUMCARI      FAIR      69  54  58 W6        30.04F
CANNON AFB     CLOUDY    69  69 100 S10       30.11R
CLOVIS AIRPORT FAIR      69  63  81 S13       30.11S

$$
NMZ028-029-538-200900-
SOUTHEAST PLAINS

CITY           SKY/WX    TMP DP  RH WIND       PRES   REMARKS
ROSWELL        FAIR      76  60  57 SE17      30.06R
ARTESIA        MOCLDY    73  70  88 CALM      30.08F THUNDER
CARLSBAD       FAIR      72  70  93 CALM      30.04S
HOBBS          CLOUDY    73  63  68 N5        30.07F


$$



USA.gov is the U.S. government's official web portal to all federal, state and local government web resources and services.